Location: ????????
(37.6846°N, 24.0673°E)
Time: 14:51:44
(UTC+00:00)

Cosmos 1850 Rocket - Pass Details

Date: 14 July 2020
Orbit: 754 x 785 km, 74.0° (Epoch: 04 August)

Event Time Altitude Azimuth Distance (km) Brightness Sun altitude
Exits shadow 01:06:20 34° 182° (S) 1,276 4.7 -20.2°
Maximum altitude 01:08:41 73° 106° (ESE) 823 4.1 -19.9°
Drops below altitude 10° 01:14:00 10° 22° (NNE) 2,349 7.6 -19.2°
Sets 01:16:24 0° 21° (NNE) 3,279 8.6 -18.9°
